This demonstration page uses our WeatherBlox Daily Observations layout. Learn more.

Left ArrowRight Arrow

39.01783, -85.05884

Hourly Observations for April 19, 2020

Temp ( °F °C ) Dew Point ( °F °C ) Humidity (%) Winds ( mph kmh ) Pressure ( in mb ) Visibility ( mi km ) Precip ( " mm )
12:52 am 00:52 Clear 40 4.4 31 -0.6 70 70 S 7 11 29.94 1014 10 16 N/A
1:52 am 01:52 Clear 40 4.4 32 undefined 73 73 S 9 15 29.92 1013 10 16 N/A
2:52 am 02:52 Clear 39 3.9 32 undefined 76 76 S 9 15 29.91 1013 10 16 N/A
3:52 am 03:52 Clear 38 3.3 32 undefined 79 79 S 7 11 29.89 1012 10 16 N/A
4:52 am 04:52 Clear 37 2.8 31 -0.6 79 79 S 6 9 29.90 1013 10 16 N/A
5:52 am 05:52 Clear 36 2.2 31 -0.6 82 82 S 6 9 29.90 1012 10 16 N/A
6:52 am 06:52 Mostly Cloudy 36 2.2 31 -0.6 82 82 S 6 9 29.88 1012 9 14 N/A
7:52 am 07:52 Cloudy 39 3.9 35 1.7 86 86 S 9 15 29.88 1012 8 13 N/A
8:52 am 08:52 Mostly Cloudy 43 6.1 35 1.7 74 74 SSW 9 15 29.89 1012 10 16 N/A
9:52 am 09:52 Cloudy 50 10 36 2.2 59 59 SW 8 13 29.87 1012 10 16 N/A
10:52 am 10:52 Cloudy 50 10 36 2.2 59 59 S 6 9 29.87 1011 10 16 N/A
11:52 am 11:52 Cloudy 51 10.6 37 2.8 59 59 S 9 15 29.87 1012 10 16 N/A
12:52 pm 12:52 Cloudy 50 10 41 5 71 71 S 9 15 29.84 1010 10 16 0.00 0.00
1:52 pm 13:52 Cloudy 55 12.8 39 3.9 55 55 SW 7 11 29.81 1010 10 16 0.00 0.00
2:52 pm 14:52 Mostly Cloudy 56 13.3 37 2.8 49 49 SSW 7 11 29.80 1009 10 16 N/A
3:52 pm 15:52 Cloudy 57 13.9 39 3.9 51 51 WSW 7 11 29.79 1009 10 16 N/A
4:52 pm 16:52 Cloudy 57 13.9 41 5 55 55 SSW 8 13 29.77 1008 10 16 0.00 0.00
5:52 pm 17:52 Cloudy 56 13.3 39 3.9 53 53 WSW 6 9 29.80 1009 10 16 N/A
6:52 pm 18:52 Mostly Cloudy 55 12.8 39 3.9 55 55 W 9 15 29.79 1009 10 16 N/A
7:52 pm 19:52 Mostly Cloudy 52 11.1 38 3.3 59 59 SSW 5 7 29.77 1008 10 16 N/A
8:52 pm 20:52 Partly Cloudy 52 11.1 38 3.3 59 59 N N/A 29.77 1008 10 16 N/A
9:52 pm 21:52 Partly Cloudy 50 10 38 3.3 63 63 N N/A 29.77 1008 10 16 N/A
10:52 pm 22:52 Partly Cloudy 47 8.3 38 3.3 71 71 N N/A 29.77 1008 10 16 N/A
11:52 pm 23:52 Cloudy 46 7.8 38 3.3 73 73 N N/A 29.76 1008 10 16 N/A

Powered by AerisWeather